Data for 07/13/2018

Time Sea-Level Adjusted Pressure Absolute Pressure Temperature Relative Humidity Dew Point   
(mb) (inHg) (mb) (inHg) (C) (F) (%) (C) (F)
00:05 1023 30.21 852 25.16 17.6 63.6 60 9.9 49.7
00:10 1023 30.21 852 25.16 17.4 63.3 62 10.1 50.2
00:15 1023 30.21 852 25.16 17.3 63.1 62 10 50.1
00:20 1023 30.21 852 25.16 17.4 63.3 62 10.1 50.2
00:25 1023 30.21 852 25.16 17.4 63.3 63 10.2 50.4
00:30 1023 30.21 852 25.16 17.4 63.3 62 10.1 50.1
00:35 1023 30.21 852 25.16 17.4 63.3 62 10.2 50.3
00:40 1023 30.21 852 25.16 17.3 63.1 63 10.2 50.4
00:45 1023 30.21 852 25.16 17.3 63.2 62 10.1 50.2
00:50 1023 30.21 852 25.16 17.4 63.3 62 10.2 50.4
00:55 1023 30.21 852 25.16 17.4 63.3 62 10.2 50.3
01:00 1023 30.21 852 25.16 17.4 63.4 62 10.1 50.2
01:05 1023 30.21 852 25.16 17.4 63.4 62 10.2 50.4
01:10 1023 30.21 852 25.16 17.6 63.6 61 10 50.1
01:15 1023 30.21 852 25.16 17.8 64.1 59 9.9 49.9
01:20 1023 30.21 852 25.16 17.9 64.2 59 9.8 49.6
01:25 1023 30.21 852 25.16 17.9 64.3 57 9.5 49.1
01:30 1023 30.21 852 25.16 17.6 63.8 59 9.6 49.2
01:35 1023 30.21 852 25.16 17.6 63.6 57 9.1 48.4
01:40 1023 30.21 852 25.16 17.2 62.9 57 8.5 47.4
01:45 1023 30.21 852 25.16 16.9 62.3 58 8.7 47.6
01:50 1023 30.21 852 25.16 17.1 62.7 59 9 48.2
01:55 1023 30.21 852 25.16 17.2 63 56 8.5 47.4
02:00 1023 30.21 852 25.16 17 62.5 57 8.4 47.1
02:05 1023 30.21 852 25.16 16.4 61.6 59 8.4 47
02:10 1023 30.21 852 25.16 16.1 61.1 56 7.5 45.5
02:15 1023 30.21 852 25.16 16.2 61.2 55 7.3 45.1
02:20 1023 30.21 852 25.16 16.3 61.4 54 7.1 44.7
02:25 1023 30.21 852 25.16 16.3 61.3 56 7.4 45.4
02:30 1023 30.21 852 25.16 16 60.7 55 7.1 44.7
02:35 1023 30.21 852 25.16 16.2 61.2 56 7.4 45.3
02:40 1023 30.21 852 25.16 16.1 60.9 56 7.3 45.2
02:45 1023 30.21 852 25.16 16 60.9 56 7.2 45
02:50 1023 30.21 853 25.19 16 60.7 56 7.3 45.1
02:55 1023 30.21 853 25.19 15.8 60.4 57 7.5 45.4
03:00 1023 30.21 853 25.19 15.7 60.2 57 7.3 45.1
03:05 1023 30.21 853 25.19 15.6 60.1 57 7.2 45
03:10 1023 30.21 852 25.16 15.9 60.5 57 7.3 45.2
03:15 1023 30.21 852 25.16 15.8 60.5 57 7.4 45.4
03:20 1023 30.21 852 25.16 16.1 61 56 7.5 45.5
03:25 1023 30.21 852 25.16 15.8 60.4 58 7.6 45.7
03:30 1023 30.21 852 25.16 15.1 59.1 60 7.3 45.2
03:35 1023 30.21 852 25.16 14.8 58.7 61 7.4 45.3
03:40 1023 30.21 852 25.16 14.7 58.4 61 7.2 45
03:45 1023 30.21 853 25.19 14.8 58.6 59 7 44.6
03:50 1023 30.21 853 25.19 15.1 59.1 60 7.4 45.3
03:55 1023 30.21 853 25.19 14.5 58.1 62 7.3 45.1
04:00 1023 30.21 853 25.19 14.2 57.5 62 7 44.5
04:05 1023 30.21 853 25.19 14.2 57.5 62 7 44.7
04:10 1023 30.21 853 25.19 14.1 57.4 62 6.9 44.4
04:15 1023 30.21 853 25.19 14.3 57.8 58 6.1 43
04:20 1023 30.21 853 25.19 14.8 58.7 57 6.4 43.6
04:25 1023 30.21 853 25.19 15.3 59.6 55 6.4 43.6
04:30 1023 30.21 853 25.19 15 58.9 57 6.5 43.8
04:35 1023 30.21 853 25.19 15 59 59 7.1 44.8
04:40 1023 30.21 853 25.19 15.1 59.1 61 7.6 45.8
04:45 1023 30.21 853 25.19 15.1 59.3 64 8.4 47.2
04:50 1023 30.21 853 25.19 15.2 59.3 61 7.9 46.2
04:55 1023 30.21 852 25.16 14.7 58.5 63 7.8 46
05:00 1023 30.21 853 25.19 14.4 58 63 7.6 45.6
05:05 1023 30.21 853 25.19 14.4 57.9 63 7.4 45.3
05:10 1023 30.21 853 25.19 14.5 58.1 62 7.5 45.4
05:15 1023 30.21 853 25.19 14.5 58 60 6.8 44.3
05:20 1023 30.21 853 25.19 14.9 58.9 58 6.9 44.4
05:25 1023 30.21 853 25.19 14.8 58.6 57 6.5 43.7
05:30 1023 30.21 853 25.19 14.7 58.5 58 6.7 44
05:35 1023 30.21 853 25.19 14.8 58.6 56 6.2 43.2
05:40 1023 30.21 853 25.19 14.5 58.2 57 6.2 43.1
05:45 1023 30.21 853 25.19 14.7 58.5 56 6.1 43
05:50 1023 30.21 853 25.19 14.4 58 57 6.1 43.1
05:55 1023 30.21 853 25.19 14.1 57.4 58 6 42.8
06:00 1023 30.21 852 25.16 14.1 57.5 58 6 42.9
06:05 1023 30.21 852 25.16 14.3 57.8 58 6.2 43.2
06:10 1023 30.21 852 25.16 14.9 58.8 55 6.1 43
06:15 1023 30.21 852 25.16 15.1 59.2 56 6.5 43.7
06:20 1023 30.21 853 25.19 15.2 59.4 57 6.9 44.5
06:25 1023 30.21 853 25.19 15.5 59.9 57 7.2 45
06:30 1023 30.21 853 25.19 15.5 60 58 7.4 45.4
06:35 1024 30.24 853 25.19 15.5 60 58 7.3 45.2
06:40 1024 30.24 853 25.19 15.6 60 57 7.1 44.8
06:45 1024 30.24 853 25.19 15.6 60 55 6.8 44.2
06:50 1024 30.24 853 25.19 15.5 59.8 56 6.9 44.4
06:55 1024 30.24 853 25.19 15.7 60.2 56 7 44.7
07:00 1024 30.24 853 25.19 15.7 60.3 57 7.3 45.1
07:05 1024 30.24 853 25.19 15.8 60.4 56 7 44.6
07:10 1024 30.24 853 25.19 16 60.7 56 7.3 45.1
07:15 1024 30.24 853 25.19 16 60.8 56 7.3 45.2
07:20 1024 30.24 853 25.19 16.3 61.3 57 7.9 46.3
07:25 1024 30.24 853 25.19 16.5 61.8 57 8.2 46.8
07:30 1024 30.24 853 25.19 17.1 62.7 56 8.4 47.2
07:35 1024 30.24 853 25.19 17.3 63.1 56 8.5 47.4
07:40 1024 30.24 853 25.19 17.5 63.5 56 8.9 47.9
07:45 1024 30.24 853 25.19 17.5 63.5 57 8.9 48.1
07:50 1024 30.24 853 25.19 17.8 64 55 8.6 47.5
07:55 1024 30.24 853 25.19 18.2 64.8 54 8.9 48
08:00 1024 30.24 853 25.19 18.5 65.2 52 8.5 47.2
08:05 1024 30.24 853 25.19 18.4 65.1 52 8.5 47.4
08:10 1024 30.24 853 25.19 18.8 65.8 53 9.2 48.6
08:15 1024 30.24 853 25.19 19.3 66.8 52 9.3 48.8
08:20 1024 30.24 853 25.19 19.5 67.1 50 8.8 47.9
08:25 1024 30.24 853 25.19 20 68.1 48 8.8 47.9
08:30 1024 30.24 853 25.19 20.5 69 48 9.2 48.5
08:35 1024 30.24 853 25.19 20.9 69.5 47 9.2 48.5
08:40 1024 30.24 853 25.19 21 69.7 47 9.4 48.8
08:45 1024 30.24 853 25.19 21.2 70.2 46 9.4 48.9
08:50 1024 30.24 853 25.19 21.6 70.8 47 10 50
08:55 1024 30.24 853 25.19 21.8 71.3 45 9.6 49.3
09:00 1024 30.24 853 25.19 21.5 70.8 46 9.7 49.5
09:05 1024 30.24 853 25.19 22.2 71.9 44 9.4 48.8
09:10 1024 30.24 853 25.19 23.1 73.5 43 10 50
09:15 1024 30.24 853 25.19 23.2 73.8 42 9.8 49.7
09:20 1024 30.24 853 25.19 23 73.5 43 10.1 50.2
09:25 1024 30.24 853 25.19 23.5 74.4 40 9.2 48.6
09:30 1024 30.24 853 25.19 23.4 74.1 41 9.5 49.1
09:35 1024 30.24 853 25.19 23 73.4 40 9 48.2
09:40 1024 30.24 853 25.19 22.3 72.2 44 9.6 49.3
09:45 1024 30.24 853 25.19 22.2 71.9 42 9 48.2
09:50 1024 30.24 853 25.19 23.2 73.7 39 8.8 47.8
09:55 1024 30.24 853 25.19 23.6 74.5 38 8.7 47.7
10:00 1024 30.24 853 25.19 23.7 74.7 40 9.5 49.1
10:05 1024 30.24 853 25.19 23.4 74.1 39 9 48.2
10:10 1024 30.24 853 25.19 23.8 74.8 40 9.4 49
10:15 1024 30.24 853 25.19 24.3 75.7 38 9.4 48.9
10:20 1024 30.24 853 25.19 23.7 74.7 41 10.1 50.1
10:25 1024 30.24 853 25.19 23.1 73.6 41 9.3 48.7
10:30 1024 30.24 853 25.19 23.8 74.8 40 9.5 49
10:35 1024 30.24 853 25.19 24 75.1 39 9.5 49.1
10:40 1024 30.24 853 25.19 24.8 76.6 37 9.3 48.8
10:45 1024 30.24 853 25.19 24.7 76.5 37 9.4 48.9
10:50 1023 30.21 853 25.19 25 77.1 35 8.9 48
10:55 1023 30.21 853 25.19 25 77 37 9.4 48.9
11:00 1023 30.21 853 25.19 25.1 77.1 36 9.1 48.4
11:05 1023 30.21 853 25.19 25.7 78.2 35 9.2 48.6
11:10 1023 30.21 853 25.19 25.5 77.9 36 9.6 49.3
11:15 1023 30.21 853 25.19 25.8 78.5 35 9.6 49.2
11:20 1023 30.21 853 25.19 26 78.7 34 9.2 48.6
11:25 1023 30.21 853 25.19 26 78.7 34 9.2 48.6
11:30 1023 30.21 853 25.19 26.5 79.6 33 9.3 48.8
11:35 1023 30.21 853 25.19 26.6 79.9 33 9.2 48.5
11:40 1023 30.21 852 25.16 26.5 79.7 34 9.5 49.1
11:45 1023 30.21 852 25.16 26.5 79.7 33 9.1 48.3
11:50 1023 30.21 852 25.16 26.7 80 33 9.3 48.7
11:55 1023 30.21 852 25.16 27.2 80.9 32 9.1 48.5
12:00 1023 30.21 852 25.16 26.5 79.8 34 9.5 49.1
12:05 1023 30.21 852 25.16 26.4 79.5 34 9.5 49
12:10 1023 30.21 852 25.16 26.3 79.3 34 9.5 49.2
12:15 1023 30.21 852 25.16 26.5 79.8 35 10 49.9
12:20 1023 30.21 852 25.16 26.5 79.8 34 9.8 49.6
12:25 1023 30.21 852 25.16 27.5 81.5 30 8.7 47.7
12:30 1023 30.21 852 25.16 28.2 82.8 30 9.1 48.4
12:35 1023 30.21 852 25.16 27.6 81.6 30 8.7 47.6
12:40 1023 30.21 852 25.16 27.6 81.7 28 7.9 46.2
12:45 1023 30.21 852 25.16 28.5 83.3 28 8.7 47.6
12:50 1023 30.21 852 25.16 28.8 83.8 27 8.3 46.9
12:55 1023 30.21 852 25.16 29 84.2 29 9.4 48.9
13:00 1023 30.21 852 25.16 29.1 84.3 28 8.9 48.1
13:05 1023 30.21 852 25.16 28.4 83.1 28 8.5 47.3
13:10 1023 30.21 852 25.16 28.1 82.6 30 9.4 48.9
13:15 1023 30.21 852 25.16 28.2 82.7 31 10 49.9
13:20 1023 30.21 852 25.16 27.4 81.3 30 8.8 47.9
13:25 1022 30.18 852 25.16 28 82.5 31 9.4 48.9
13:30 1022 30.18 852 25.16 28.4 83.1 30 9.5 49.1
13:35 1022 30.18 852 25.16 28.1 82.7 29 8.8 47.8
13:40 1022 30.18 852 25.16 28.6 83.5 27 8.3 47
13:45 1022 30.18 851 25.13 27.9 82.3 27 7.6 45.6
13:50 1022 30.18 851 25.13 27.9 82.1 26 7 44.6
13:55 1022 30.18 851 25.13 28.9 83.9 25 7.2 45
14:00 1022 30.18 851 25.13 29.7 85.5 26 8.3 47
14:05 1022 30.18 851 25.13 30 86 27 9.4 48.9
14:10 1022 30.18 851 25.13 29.8 85.6 28 9.5 49.1
14:15 1022 30.18 851 25.13 29.9 85.8 27 9.4 48.9
14:20 1022 30.18 851 25.13 30.3 86.5 27 9.7 49.4
14:25 1022 30.18 851 25.13 30.3 86.6 27 9.4 49
14:30 1022 30.18 851 25.13 30 86 28 9.8 49.7
14:35 1022 30.18 851 25.13 30 85.9 28 9.8 49.6
14:40 1022 30.18 851 25.13 30.6 87.1 25 8.9 48.1
14:45 1022 30.18 851 25.13 31.3 88.3 25 9.2 48.6
14:50 1022 30.18 851 25.13 31.5 88.6 24 8.7 47.7
14:55 1022 30.18 851 25.13 31 87.7 25 9 48.2
15:00 1022 30.18 851 25.13 31 87.7 25 9.2 48.6
15:05 1021 30.15 851 25.13 30.5 86.9 25 8.4 47.2
15:10 1021 30.15 851 25.13 30.6 87.1 23 7.7 45.9
15:15 1021 30.15 851 25.13 31.7 89 22 7.8 46.1
15:20 1021 30.15 851 25.13 31.9 89.4 23 8.3 46.9
15:25 1021 30.15 850 25.1 32.6 90.6 21 7.7 45.8
15:30 1021 30.15 850 25.1 32.2 90 23 8.8 47.8
15:35 1021 30.15 850 25.1 30.8 87.4 23 7.9 46.2
15:40 1021 30.15 850 25.1 31.4 88.6 22 7.4 45.2
15:45 1021 30.15 850 25.1 31.4 88.6 22 7.5 45.4
15:50 1021 30.15 850 25.1 30.7 87.3 23 7.5 45.4
15:55 1021 30.15 850 25.1 31.7 89.1 22 8 46.4
16:00 1021 30.15 850 25.1 32.5 90.5 22 8.2 46.7
16:05 1021 30.15 850 25.1 32.4 90.3 22 8.2 46.7
16:10 1021 30.15 850 25.1 31.3 88.4 22 7.5 45.6
16:15 1021 30.15 850 25.1 31.1 88 22 7.4 45.3
16:20 1021 30.15 850 25.1 31.8 89.2 22 7.7 45.8
16:25 1021 30.15 850 25.1 31.1 88 23 7.9 46.2
16:30 1021 30.15 850 25.1 30.8 87.5 24 8.2 46.8
16:35 1021 30.15 850 25.1 31.7 89.1 22 7.9 46.2
16:40 1021 30.15 850 25.1 31.6 89 23 8.5 47.2
16:45 1021 30.15 850 25.1 31.8 89.2 21 7.3 45.2
16:50 1021 30.15 850 25.1 32.3 90.2 22 8.6 47.4
16:55 1021 30.15 850 25.1 31.5 88.7 22 7.3 45.1
17:00 1020 30.12 850 25.1 31.2 88.2 23 7.8 46
17:05 1020 30.12 850 25.1 31.5 88.6 23 8.2 46.8
17:10 1020 30.12 850 25.1 31.8 89.2 22 8.1 46.5
17:15 1020 30.12 850 25.1 31.5 88.6 23 7.9 46.2
17:20 1020 30.12 850 25.1 31.7 89.1 22 7.6 45.8
17:25 1020 30.12 850 25.1 31.8 89.3 20 6.8 44.3
17:30 1020 30.12 850 25.1 31.5 88.8 21 7.3 45.1
17:35 1020 30.12 850 25.1 32 89.6 21 7 44.6
17:40 1020 30.12 849 25.07 31.6 88.8 23 8 46.5
17:45 1020 30.12 849 25.07 31.2 88.2 22 7.1 44.8
17:50 1020 30.12 849 25.07 31.6 88.9 20 6.5 43.7
17:55 1020 30.12 849 25.07 31.5 88.6 22 7.5 45.5
18:00 1020 30.12 849 25.07 31.3 88.3 22 7.2 45
18:05 1020 30.12 849 25.07 31 87.8 22 6.8 44.3
18:10 1020 30.12 849 25.07 31.3 88.3 22 7.4 45.4
18:15 1020 30.12 849 25.07 31.3 88.3 21 7 44.6
18:20 1020 30.12 849 25.07 31 87.8 21 6.7 44.1
18:25 1020 30.12 849 25.07 31.2 88.2 21 6.4 43.5
18:30 1020 30.12 849 25.07 31.4 88.6 20 6.4 43.5
18:35 1020 30.12 849 25.07 31.7 89.1 20 6.3 43.4
18:40 1020 30.12 849 25.07 31.4 88.5 20 6.3 43.4
18:45 1020 30.12 849 25.07 30.9 87.6 21 6.3 43.3
18:50 1020 30.12 849 25.07 31.1 87.9 20 5.9 42.6
18:55 1020 30.12 849 25.07 31.4 88.4 20 5.9 42.6
19:00 1020 30.12 849 25.07 31.6 88.9 19 5.9 42.6
19:05 1020 30.12 849 25.07 31.8 89.3 19 6 42.8
19:10 1020 30.12 849 25.07 31.7 89.1 20 6.2 43.1
19:15 1020 30.12 849 25.07 31.4 88.5 19 5.6 42.1
19:20 1020 30.12 849 25.07 31.3 88.4 20 6.3 43.4
19:25 1020 30.12 849 25.07 31.4 88.5 20 6.3 43.4
19:30 1020 30.12 849 25.07 30.7 87.2 22 6.6 43.9
19:35 1020 30.12 849 25.07 30.4 86.7 22 7 44.5
19:40 1020 30.12 849 25.07 30.4 86.7 20 5.6 42.1
19:45 1020 30.12 849 25.07 30.3 86.5 21 5.9 42.7
19:50 1020 30.12 849 25.07 30.3 86.5 20 5.5 41.8
19:55 1020 30.12 849 25.07 30.2 86.3 22 6.4 43.4
20:00 1020 30.12 849 25.07 30 86.1 26 8.7 47.7
20:05 1020 30.12 849 25.07 29.9 85.9 28 10 49.9
20:10 1020 30.12 849 25.07 29.7 85.5 25 7.9 46.1
20:15 1020 30.12 849 25.07 29.5 85.1 27 9 48.2
20:20 1020 30.12 849 25.07 28.9 84 34 11.7 53
20:25 1020 30.12 849 25.07 28.5 83.4 34 11.6 52.9
20:30 1020 30.12 849 25.07 28.3 82.9 36 12.1 53.8
20:35 1020 30.12 849 25.07 28 82.5 37 12.4 54.4
20:40 1020 30.12 849 25.07 27.6 81.7 38 12.1 53.8
20:45 1020 30.12 849 25.07 27.2 80.9 40 12.6 54.6
20:50 1020 30.12 849 25.07 26.7 80.1 42 13 55.4
20:55 1020 30.12 849 25.07 26.3 79.3 47 14.3 57.7
21:00 1020 30.12 849 25.07 26.1 78.9 44 12.9 55.3
21:05 1020 30.12 849 25.07 25.8 78.5 44 12.9 55.2
21:10 1020 30.12 849 25.07 25.1 77.1 49 13.8 56.9
21:15 1020 30.12 849 25.07 24.6 76.3 45 12.2 53.9
21:20 1020 30.12 849 25.07 24.3 75.7 46 12.1 53.8
21:25 1020 30.12 849 25.07 23.7 74.6 49 12.4 54.3
21:30 1020 30.12 849 25.07 23.3 74 51 12.8 55
21:35 1020 30.12 849 25.07 22.9 73.3 51 12.5 54.5
21:40 1020 30.12 849 25.07 22.8 73.1 48 11.3 52.3
21:45 1020 30.12 849 25.07 22.7 72.9 51 12.2 54
21:50 1020 30.12 849 25.07 22.5 72.6 50 11.8 53.2
21:55 1020 30.12 850 25.1 22.4 72.3 49 11.3 52.3
22:00 1020 30.12 850 25.1 22.2 72 45 9.9 49.8
22:05 1020 30.12 850 25.1 22.7 72.9 41 8.8 47.9
22:10 1021 30.15 850 25.1 22.7 72.8 41 9.1 48.4
22:15 1021 30.15 850 25.1 22.3 72.1 44 9.6 49.2
22:20 1021 30.15 850 25.1 21.9 71.3 46 9.9 49.9
22:25 1021 30.15 850 25.1 21.6 70.9 46 9.6 49.2
22:30 1021 30.15 850 25.1 21.4 70.5 46 9.4 49
22:35 1020 30.12 850 25.1 21.3 70.3 46 9.3 48.8
22:40 1020 30.12 850 25.1 21.3 70.3 44 8.6 47.5
22:45 1021 30.15 850 25.1 21.3 70.3 45 8.9 48
22:50 1021 30.15 850 25.1 21.3 70.4 44 8.8 47.8
22:55 1021 30.15 850 25.1 21.3 70.4 43 8.4 47.1
23:00 1021 30.15 850 25.1 21.5 70.8 42 8.3 46.9
23:05 1021 30.15 850 25.1 21.8 71.3 40 7.8 46.1
23:10 1021 30.15 850 25.1 21.7 71.1 41 8 46.3
23:15 1021 30.15 850 25.1 21.6 70.9 41 7.9 46.2
23:20 1021 30.15 850 25.1 21.5 70.6 41 8 46.4
23:25 1021 30.15 850 25.1 21.5 70.7 41 7.8 46.1
23:30 1021 30.15 850 25.1 21.5 70.6 41 7.9 46.1
23:35 1021 30.15 850 25.1 21.4 70.5 44 8.9 48
23:40 1021 30.15 850 25.1 20.9 69.6 44 8.4 47.2
23:45 1021 30.15 850 25.1 20.6 69 44 7.9 46.3
23:50 1021 30.15 850 25.1 20.3 68.5 46 8.4 47.1
23:55 1021 30.15 850 25.1 19.9 67.7 46 8.1 46.5
24:00 1021 30.15 850 25.1 19.9 67.7 45 7.7 45.8